Date,TemperatureHighF,TemperatureAvgF,TemperatureLowF,DewpointHighF,DewpointAvgF,DewpointLowF,HumidityHigh,HumidityAvg,HumidityLow,PressureMaxIn,PressureMinIn,WindSpeedMaxMPH,WindSpeedAvgMPH,GustSpeedMaxMPH,PrecipitationSumIn
2013-1-1,30,7,-9,11,0,-14,80,71,40,30.11,29.91,8,2,12,0.00
2013-1-2,27,15,6,20,9,2,87,78,58,29.92,29.81,12,3,13,0.00
2013-1-3,25,13,7,20,8,2,87,78,61,30.10,29.92,16,5,20,0.00
2013-1-4,41,20,11,23,13,7,85,74,45,30.00,29.89,9,2,15,0.00
2013-1-5,42,20,11,27,14,7,85,78,55,29.97,29.72,14,4,20,0.00
2013-1-6,15,13,12,11,9,7,86,83,80,29.99,29.84,13,7,18,0.00
2013-1-7,45,30,20,28,23,16,86,75,52,29.85,29.79,14,2,22,0.00
2013-1-8,38,26,14,30,22,10,87,82,69,29.86,29.66,16,5,22,0.00
2013-1-9,47,30,23,28,24,19,86,76,46,30.23,29.81,17,5,25,0.00
2013-1-10,40,34,26,33,26,21,92,74,50,30.22,29.62,71,10,71,0.12
2013-1-11,43,38,34,41,36,32,94,93,92,29.63,29.30,20,8,36,0.00
2013-1-12,43,20,7,41,14,0,94,76,60,29.92,29.31,15,8,22,0.00
2013-1-13,17,8,3,5,1,-3,78,73,59,30.09,29.85,15,6,20,0.00
2013-1-14,27,11,3,16,5,-2,82,77,57,30.24,30.09,12,2,15,0.00
2013-1-15,44,22,9,25,14,5,83,71,45,30.16,29.77,15,5,24,0.00
2013-1-16,40,27,17,33,21,9,88,78,69,30.04,29.57,18,6,26,0.00
2013-1-17,23,16,7,13,8,0,78,69,53,30.25,30.04,16,4,19,0.00
2013-1-18,50,32,17,34,25,12,85,75,54,30.16,29.62,19,6,23,0.00
2013-1-19,45,28,3,35,21,-4,87,74,58,30.02,29.57,34,10,47,0.00
2013-1-20,12,5,1,0,-3,-7,73,67,54,30.21,30.01,16,8,22,0.00
2013-1-21,1,-4,-9,-7,-13,-17,73,65,55,30.16,30.06,19,10,25,0.00
2013-1-22,16,1,-9,-1,-8,-15,75,65,46,30.23,30.08,11,3,14,0.00
2013-1-23,20,10,-3,12,1,-14,79,67,53,30.38,29.97,22,8,28,0.00
2013-1-24,14,5,-5,3,-7,-15,64,59,49,30.47,30.04,18,9,22,0.00
2013-1-25,24,14,4,15,6,-2,76,69,57,30.12,29.80,24,7,30,0.00
2013-1-26,30,15,0,14,5,-6,77,63,47,30.20,30.00,19,7,21,0.00
2013-1-27,32,30,25,29,23,13,91,77,56,30.01,29.66,100,14,100,0.04
2013-1-28,33,32,31,31,30,29,93,92,91,29.78,29.48,112,12,113,0.02
2013-1-29,36,33,28,34,30,24,94,89,82,29.54,29.38,21,6,25,0.10
2013-1-30,28,20,12,23,14,5,84,78,71,29.58,29.41,22,12,25,0.00
2013-1-31,12,3,-6,5,-4,-13,78,72,60,30.08,29.58,22,13,29,0.00
2013-2-1,16,1,-10,2,-7,-16,80,68,44,30.13,29.87,15,6,20,0.00
2013-2-2,15,10,6,8,4,1,82,76,65,30.00,29.79,10,3,14,0.00
2013-2-3,25,14,6,12,7,1,84,74,54,29.94,29.77,16,5,22,0.00
2013-2-4,30,13,6,12,5,0,84,71,47,29.91,29.69,14,4,16,0.00
2013-2-5,32,22,10,26,17,6,88,81,73,29.94,29.55,16,5,20,0.00
2013-2-6,34,23,6,30,18,3,88,82,68,29.96,29.77,20,4,23,0.00
2013-2-7,34,27,24,30,24,20,91,89,83,30.06,29.80,16,5,36,0.00
2013-2-8,31,25,21,21,19,15,85,79,66,30.21,30.06,19,5,36,0.00
2013-2-9,31,28,24,26,24,20,89,85,81,30.11,29.79,23,13,71,0.00
2013-2-10,37,33,29,35,30,25,93,90,85,29.80,29.13,23,9,43,0.29
2013-2-11,33,25,19,31,21,14,92,83,76,29.89,29.16,23,12,32,0.04
2013-2-12,46,27,16,28,20,11,86,77,48,29.91,29.69,16,3,21,0.00
2013-2-13,38,30,19,32,25,16,87,81,71,29.69,29.44,8,2,14,0.00
2013-2-14,41,29,17,32,23,6,92,76,56,30.00,29.44,19,7,36,0.02
2013-2-15,22,12,6,8,4,0,78,69,53,30.13,29.99,15,7,22,0.00
2013-2-16,22,11,2,10,4,-3,80,72,59,30.08,29.96,10,2,14,0.00
2013-2-17,33,23,8,22,15,3,80,71,57,29.97,29.54,25,13,30,0.00
2013-2-18,38,24,7,31,18,2,85,78,72,29.61,29.42,23,12,30,0.00
2013-2-19,9,4,-2,2,-3,-9,82,73,63,30.16,29.61,22,12,28,0.00
2013-2-20,25,7,-5,8,-2,-11,76,69,47,30.28,30.16,12,4,14,0.00
2013-2-21,23,15,4,14,8,-1,84,72,63,30.25,29.86,17,7,20,0.00
2013-2-22,40,24,18,27,19,14,88,80,58,29.86,29.69,17,6,19,0.02
2013-2-23,30,20,8,22,15,5,86,80,68,29.82,29.70,7,2,15,0.00
2013-2-24,43,22,2,26,13,-2,85,71,48,29.96,29.82,10,2,13,0.00
2013-2-25,39,31,25,30,25,21,87,77,66,29.96,29.87,8,2,9,0.02
2013-2-26,34,27,22,26,22,19,90,83,72,29.88,29.67,16,6,20,0.00
2013-2-27,36,31,29,27,25,22,84,77,68,29.82,29.66,18,11,21,0.00
2013-2-28,29,28,25,25,21,18,84,76,71,30.03,29.82,17,9,21,0.00
2013-3-1,29,24,17,18,15,10,78,70,62,30.15,30.03,16,8,21,0.00
2013-3-2,35,19,8,17,9,2,84,64,39,30.18,30.02,10,3,13,0.00
2013-3-3,36,25,13,16,11,6,75,58,39,30.03,29.85,16,6,20,0.00
2013-3-4,29,25,21,21,18,12,84,72,58,29.88,29.77,18,10,22,0.00
2013-3-5,30,26,23,24,22,19,87,83,77,30.09,29.80,15,7,36,0.00
2013-3-6,32,21,8,20,14,4,88,76,59,30.25,30.09,16,6,20,0.00
2013-3-7,35,19,-2,22,11,-6,84,72,53,30.24,30.14,18,5,20,0.00
2013-3-8,40,30,18,30,24,14,87,77,63,30.19,29.96,19,11,21,0.00
2013-3-9,36,35,33,34,32,28,92,90,80,29.96,29.57,23,12,71,0.51
2013-3-10,35,33,30,32,31,28,93,91,83,29.76,29.57,21,11,25,0.00
2013-3-11,30,28,20,28,25,3,93,91,88,29.70,29.58,17,9,20,0.00
2013-3-12,22,20,16,18,16,13,88,84,75,30.00,29.69,14,6,21,0.00
2013-3-13,34,22,12,20,14,8,84,71,55,30.24,30.00,14,4,18,0.00
2013-3-14,41,29,18,30,22,13,89,77,63,30.13,29.87,15,5,17,0.02
2013-3-15,39,32,26,33,29,22,92,86,78,29.88,29.64,13,4,18,0.06
2013-3-16,31,24,16,28,18,8,92,78,62,30.03,29.69,21,8,36,0.00
2013-3-17,30,21,8,21,11,2,77,67,52,30.06,29.73,22,10,26,0.00
2013-3-18,33,22,11,28,17,6,89,80,68,29.73,29.46,25,14,33,0.00
2013-3-19,22,13,6,10,5,0,81,69,52,29.98,29.64,24,13,30,0.00
2013-3-20,18,11,4,6,1,-3,73,64,51,30.02,29.92,20,11,28,0.00
2013-3-21,30,15,0,12,4,-6,78,63,45,29.95,29.87,9,2,13,0.00
2013-3-22,45,21,4,23,9,-1,80,62,38,29.93,29.87,8,2,11,0.00
2013-3-23,43,28,14,24,17,8,78,62,44,30.02,29.88,12,3,13,0.00
2013-3-24,36,29,26,26,21,18,77,71,62,29.95,29.79,24,7,28,0.00
2013-3-25,35,29,21,22,19,15,80,67,53,30.06,29.83,18,9,22,0.00
2013-3-26,39,29,20,26,21,14,80,70,57,30.15,30.05,10,3,12,0.00
2013-3-27,47,30,16,26,19,12,85,65,44,30.23,30.14,7,1,10,0.00
2013-3-28,49,33,18,28,22,2,82,64,43,30.22,30.14,9,1,10,0.00
2013-3-29,51,38,25,35,28,20,82,69,49,30.17,29.97,15,5,18,0.00
2013-3-30,48,41,33,42,35,30,90,79,70,29.97,29.72,20,6,23,0.08
2013-3-31,39,33,31,32,30,28,92,87,66,29.73,29.66,20,7,28,0.00
2013-4-2,35,30,24,18,16,15,71,57,48,30.20,30.15,10,2,22,0.00
2013-4-3,42,33,18,28,22,14,84,66,44,30.29,30.00,19,6,23,0.00
2013-4-4,46,38,34,37,27,23,76,66,55,30.00,29.91,14,6,25,0.00
2013-4-5,47,36,27,32,26,20,89,70,46,30.11,29.79,23,7,43,0.08
2013-4-6,58,44,35,47,36,25,89,73,60,29.80,29.37,26,12,32,0.06
2013-4-7,50,42,34,39,35,31,88,77,61,29.83,29.61,14,5,16,0.02
2013-4-8,53,44,39,46,40,36,91,85,75,29.87,29.54,15,6,18,0.32
2013-4-9,39,38,34,37,35,32,93,91,88,29.95,29.76,27,13,35,0.84
2013-4-10,35,33,30,32,30,27,92,89,81,29.97,29.71,26,10,35,0.22
2013-4-11,35,33,30,33,30,28,92,88,77,29.72,29.48,19,6,22,0.12
2013-4-12,36,32,28,30,28,26,92,85,73,29.69,29.47,14,8,21,0.00
2013-4-13,38,32,28,28,26,23,89,78,63,29.83,29.69,17,5,20,0.00
2013-4-14,40,34,31,38,30,25,92,86,74,29.82,29.36,20,9,71,0.45
2013-4-15,43,38,33,37,30,27,90,75,65,29.86,29.47,14,5,22,0.00
2013-4-16,46,38,31,33,29,26,83,71,56,30.17,29.85,14,6,19,0.00
2013-4-17,38,36,32,34,31,15,92,82,71,30.16,29.62,21,8,27,0.34
2013-4-18,37,34,31,35,32,29,93,92,90,29.71,29.31,18,8,21,0.10
2013-4-19,36,32,30,29,26,23,92,78,62,29.83,29.31,17,6,38,0.00
2013-4-20,42,35,25,23,19,15,74,54,38,30.16,29.83,11,4,15,0.00
2013-4-21,54,42,33,46,36,22,92,77,56,30.17,29.91,100,12,100,0.41
2013-4-22,48,39,32,45,36,30,93,92,88,30.03,29.87,19,8,24,0.35
2013-4-23,40,34,31,32,28,24,93,78,57,29.98,29.89,16,5,21,0.02
2013-4-24,52,39,25,35,29,20,87,69,44,29.93,29.76,20,4,36,0.04
2013-4-25,56,41,32,35,30,27,87,67,39,30.10,29.86,17,6,21,0.00
2013-4-26,76,59,43,46,40,28,71,52,34,30.03,29.90,23,7,26,0.00
2013-4-27,74,60,46,54,48,42,87,65,47,30.03,29.83,17,6,20,0.00
2013-4-28,71,54,46,52,44,40,83,71,50,29.83,29.74,12,3,20,0.00
2013-4-30,68,56,52,48,46,40,84,70,39,29.84,29.67,16,4,36,0.12
2013-5-1,53,41,32,48,37,30,92,86,75,30.31,29.82,17,10,21,0.37
2013-5-2,35,33,31,32,30,29,93,91,87,30.34,30.23,19,9,22,0.08
2013-5-3,34,32,30,31,30,28,93,90,87,30.23,29.94,18,5,21,0.00
2013-5-4,50,40,32,40,35,30,93,83,70,30.01,29.90,15,8,16,0.00
2013-5-5,67,49,36,53,42,33,89,77,60,30.03,29.94,9,4,12,0.00
2013-5-6,73,58,42,53,47,39,91,68,41,30.00,29.91,7,2,10,0.00
2013-5-7,84,65,47,57,48,43,87,58,34,29.98,29.88,10,1,15,0.00
2013-5-8,82,64,50,56,51,44,89,65,36,29.91,29.83,16,3,21,0.32
2013-5-9,58,53,45,55,51,42,93,92,88,29.89,29.81,18,7,24,0.69
2013-5-10,73,51,40,48,40,34,91,67,31,29.95,29.79,19,6,21,0.00
2013-5-11,53,47,39,42,30,22,74,53,32,30.02,29.74,22,11,31,0.00
2013-5-12,61,45,33,28,25,22,70,47,26,30.08,29.96,16,6,21,0.00
2013-5-13,72,54,32,46,36,23,76,51,31,30.00,29.61,21,7,26,0.00
2013-5-14,96,76,54,59,50,38,74,45,21,29.64,29.37,26,8,32,0.00
2013-5-15,84,66,57,54,47,41,65,51,34,29.85,29.59,13,4,21,0.00
2013-5-16,85,71,53,56,49,42,68,48,30,29.86,29.75,13,3,18,0.00
2013-5-17,70,58,50,58,52,47,93,83,48,29.90,29.78,20,9,23,1.05
2013-5-18,80,68,55,66,60,51,91,75,59,29.90,29.73,20,9,22,0.00
2013-5-19,81,68,62,70,62,57,93,81,66,29.75,29.48,25,10,36,0.81
2013-5-20,82,67,58,63,59,52,94,77,48,29.57,29.44,19,8,36,0.26
2013-5-21,69,62,58,61,55,51,91,77,61,29.58,29.42,14,3,36,0.04
2013-5-22,59,55,50,54,52,48,93,89,79,29.80,29.54,19,6,36,0.08
2013-5-23,69,54,46,48,41,33,91,64,34,30.20,29.80,17,8,22,0.00
2013-5-24,68,56,39,49,41,31,74,59,47,30.28,30.09,18,6,20,0.02
2013-5-25,57,54,52,49,46,41,84,73,63,30.17,30.09,22,12,36,0.00
2013-5-26,56,51,47,49,44,39,88,78,65,30.11,29.92,71,11,71,0.16
2013-5-27,56,54,52,54,51,49,92,89,84,29.92,29.70,18,9,21,0.48
2013-5-28,64,57,52,61,55,50,94,91,85,29.70,29.59,11,4,14,0.00
2013-5-29,80,66,59,70,61,56,94,87,69,29.71,29.57,19,7,36,0.08
2013-5-30,78,69,63,67,63,59,93,81,64,29.62,29.47,22,11,36,0.14
2013-5-31,86,69,56,65,59,38,91,73,37,29.56,29.48,23,9,28,0.16
2013-6-1,70,59,54,59,54,51,93,84,63,29.56,29.46,15,3,36,0.10
2013-6-2,54,52,49,42,41,40,76,68,61,29.92,29.91,1,0,4,0.00
2013-6-3,72,60,44,53,46,40,88,62,43,29.98,29.84,16,3,20,0.00
2013-6-4,61,56,52,54,50,46,90,80,59,29.98,29.89,21,8,71,0.21
2013-6-5,65,56,53,60,53,50,93,90,80,29.94,29.80,15,5,36,0.06
2013-6-6,62,56,53,55,52,51,93,88,77,29.89,29.81,14,4,36,0.00
2013-6-7,74,59,52,57,52,49,93,78,52,29.92,29.82,11,2,36,0.00
2013-6-8,72,63,54,60,54,50,89,73,56,29.85,29.79,16,4,21,0.00
2013-6-9,75,63,56,64,57,52,89,82,66,29.82,29.66,19,10,36,0.27
2013-6-10,92,68,59,68,60,57,93,78,43,29.77,29.68,8,1,36,0.00
2013-6-11,96,72,57,73,64,55,92,76,44,29.81,29.72,15,2,36,0.00
2013-6-12,78,70,65,69,65,61,91,83,71,29.80,29.61,18,6,36,0.10
2013-6-13,88,69,58,63,56,51,88,64,40,29.98,29.77,13,5,16,0.00
2013-6-14,76,68,59,62,58,51,80,70,60,30.00,29.80,19,9,22,0.00
2013-6-15,84,71,63,70,64,59,92,79,60,29.87,29.71,17,4,21,0.08
2013-6-16,92,74,59,62,56,51,92,58,32,29.85,29.79,18,3,23,0.00
2013-6-17,86,73,60,64,55,52,78,56,36,29.89,29.78,16,4,20,0.00
2013-6-18,86,68,58,62,57,53,86,69,44,29.97,29.87,12,4,16,0.08
2013-6-19,88,71,57,64,58,52,85,65,41,30.01,29.89,18,7,19,0.00
2013-6-20,92,77,65,70,63,58,83,64,42,29.97,29.83,20,6,36,0.06
2013-6-21,85,74,63,71,66,60,92,76,63,29.92,29.69,20,6,25,0.57
2013-6-22,87,74,65,76,68,62,93,82,63,29.97,29.72,19,7,36,2.27
2013-6-23,85,74,66,71,66,62,92,78,63,29.83,29.63,23,7,36,0.12
2013-6-24,79,71,66,71,65,62,93,83,73,29.85,29.72,18,3,36,0.12
2013-6-25,88,74,64,75,69,62,94,84,66,29.78,29.62,14,5,17,0.51
2013-6-26,91,78,70,76,71,65,95,80,51,29.74,29.58,13,4,36,0.00
2013-6-27,89,77,65,72,61,56,88,62,35,29.78,29.69,19,5,27,0.00
2013-6-28,77,70,64,63,60,56,90,70,57,29.72,29.62,19,7,26,0.26
2013-6-29,73,66,61,61,59,53,93,80,58,29.85,29.64,21,6,36,0.26
2013-6-30,85,68,55,57,52,47,76,59,36,30.00,29.85,14,5,19,0.00
2013-7-1,82,72,56,62,56,50,81,59,43,30.09,30.00,12,3,17,0.00
2013-7-2,82,71,60,60,56,52,77,60,41,30.05,29.96,14,3,17,0.00
2013-7-3,85,72,59,64,58,54,85,63,40,30.02,29.87,12,2,15,0.00
2013-7-4,91,76,60,66,59,50,77,56,37,29.95,29.84,13,4,18,0.00
2013-7-5,90,78,65,65,61,55,74,56,41,29.92,29.81,18,6,26,0.00
2013-7-6,93,81,69,70,64,59,75,58,43,29.89,29.78,18,6,23,0.00
2013-7-7,93,83,74,72,69,65,83,62,49,29.84,29.75,12,3,36,0.08
2013-7-8,99,79,69,75,70,66,92,75,42,29.92,29.80,93,3,93,0.06
2013-7-9,90,78,69,75,70,66,92,76,55,29.87,29.73,16,5,36,0.26
2013-7-10,73,69,65,67,64,61,88,83,80,29.88,29.81,10,5,13,0.00
2013-7-15,92,80,74,73,71,69,89,74,54,30.11,29.88,16,5,36,0.04
2013-7-16,104,85,73,77,72,68,91,68,38,30.16,30.10,9,2,16,0.00
2013-7-17,99,85,72,76,71,68,88,64,45,30.20,30.05,9,1,13,0.00
2013-7-18,101,86,74,75,71,68,83,62,40,30.05,29.74,11,3,20,0.00
2013-7-19,87,79,68,73,66,61,90,66,47,29.81,29.67,22,5,36,0.53
2013-7-20,93,74,62,69,63,58,87,69,43,29.86,29.79,8,1,13,0.00
2013-7-21,83,70,64,69,64,59,90,82,58,29.85,29.74,16,6,36,0.02
2013-7-22,92,76,63,76,67,59,93,74,53,29.76,29.59,16,5,22,0.00
2013-7-23,80,68,58,59,55,52,83,64,46,29.92,29.71,13,5,18,0.00
2013-7-24,78,66,55,61,55,48,83,68,49,29.99,29.90,6,1,9,0.00
2013-7-25,85,69,60,69,61,53,88,76,57,29.93,29.84,16,2,36,0.14
2013-7-26,72,66,54,63,57,47,92,74,56,29.94,29.80,17,6,22,0.04
2013-7-27,63,55,50,50,47,45,87,75,53,29.94,29.82,20,6,36,0.02
2013-7-28,79,66,52,56,52,48,87,62,44,29.96,29.83,11,4,15,0.02
2013-7-29,80,66,49,60,54,46,90,68,48,30.05,29.95,93,3,93,0.00
2013-7-30,80,69,61,66,60,54,83,75,60,30.02,29.96,8,2,10,0.00
2013-7-31,80,70,62,66,61,53,92,74,52,29.99,29.90,14,3,36,0.00
2013-8-1,83,71,55,62,57,50,85,63,42,29.99,29.77,9,2,14,0.00
2013-8-2,81,70,60,61,56,50,90,65,43,29.95,29.75,12,3,36,0.00
2013-8-3,82,67,51,59,52,47,87,61,40,30.09,29.95,11,2,15,0.00
2013-8-4,80,66,50,59,53,46,87,66,41,30.14,29.94,8,2,10,0.00
2013-8-5,85,67,59,72,62,54,92,83,60,29.94,29.72,16,2,36,0.31
2013-8-6,93,73,60,71,64,57,93,74,49,29.77,29.65,22,2,36,0.00
2013-8-7,82,67,58,62,57,50,92,72,42,29.93,29.69,11,4,17,0.00
2013-8-8,79,67,51,59,55,48,89,67,47,29.97,29.88,9,1,12,0.00
2013-8-9,80,69,59,61,56,51,85,64,44,30.02,29.90,16,4,20,0.00
2013-8-10,77,67,54,58,54,48,85,66,49,30.10,30.00,9,2,12,0.00
2013-8-11,78,68,61,68,62,55,93,83,67,30.03,29.91,10,2,18,0.91
2013-8-12,79,70,60,66,59,55,94,72,48,29.97,29.90,13,3,36,0.00
2013-8-13,77,65,54,56,51,47,88,63,40,30.10,29.97,13,3,16,0.00
2013-8-14,79,66,50,58,52,46,87,63,43,30.12,30.02,9,2,36,0.00
2013-8-15,83,66,51,59,53,47,87,64,41,30.06,30.00,5,1,12,0.00
2013-8-16,84,68,53,63,55,50,89,66,40,30.12,30.04,7,1,36,0.00
2013-8-17,86,70,54,63,56,50,89,64,40,30.14,30.04,12,2,15,0.00
2013-8-18,84,71,57,64,58,52,87,66,46,30.08,29.95,14,3,22,0.00
2013-8-19,86,73,61,69,62,55,84,71,54,29.97,29.86,11,3,18,0.00
2013-8-20,90,78,68,73,68,60,79,70,57,29.91,29.81,15,4,22,0.00
2013-8-21,90,78,72,75,70,66,91,76,59,29.90,29.80,10,3,17,0.02
2013-8-22,84,74,66,71,65,60,94,74,49,30.02,29.90,13,3,16,2.65
2013-8-23,85,72,59,70,64,56,91,76,58,30.06,29.98,13,3,36,0.00
2013-8-24,87,76,66,74,68,61,86,76,64,30.05,29.93,19,7,23,0.02
2013-8-25,92,83,74,77,72,68,81,71,60,30.02,29.91,17,6,26,0.00
2013-8-26,95,84,74,78,73,69,85,71,57,29.97,29.81,12,4,17,0.00
2013-8-27,91,83,75,77,73,69,86,72,58,29.82,29.74,11,3,17,0.00
2013-8-28,89,80,71,76,73,68,93,79,63,29.96,29.81,12,4,36,0.00
2013-8-29,92,81,72,78,72,68,91,75,54,29.97,29.80,11,3,15,0.00
2013-8-30,86,77,70,75,69,63,88,77,66,29.83,29.74,13,3,17,0.00
2013-8-31,86,74,62,72,66,59,91,78,61,29.79,29.65,8,2,10,0.00
2013-9-1,77,71,62,68,62,56,90,76,57,29.85,29.64,15,5,36,0.02
2013-9-2,65,58,51,56,52,48,90,80,66,29.98,29.85,12,3,16,0.00
2013-9-3,77,61,44,59,52,41,92,74,45,30.01,29.92,12,1,36,0.00
2013-9-4,87,72,55,70,62,51,89,74,56,30.05,29.93,8,1,12,0.00
2013-9-5,82,72,60,68,63,56,88,76,61,30.12,30.03,10,5,15,0.00
2013-9-6,88,76,65,71,64,61,88,70,47,30.03,29.81,16,4,20,0.00
2013-9-7,93,80,67,75,68,60,82,68,54,29.89,29.78,12,3,15,0.00
2013-9-8,79,71,67,67,64,61,87,78,65,29.95,29.86,16,9,22,0.00
2013-10-5,56,50,42,47,44,38,87,80,67,29.68,29.64,5,1,7,0.00
2013-10-6,43,42,42,40,39,38,89,88,87,29.64,29.59,2,0,3,0.00
2013-10-10,73,65,49,55,51,44,82,62,47,29.95,29.80,19,8,36,0.00
2013-10-11,74,64,54,61,54,49,88,70,55,29.82,29.60,30,12,37,0.00
2013-10-12,66,54,40,57,42,33,82,65,47,30.07,29.63,17,4,27,0.00
2013-10-13,72,48,35,49,36,31,85,64,40,30.31,30.06,10,1,12,0.00
2013-10-14,57,48,36,45,38,32,86,69,52,30.26,29.81,18,7,43,0.04
2013-10-15,55,50,47,52,46,43,92,88,75,29.84,29.59,22,7,25,0.12
2013-10-16,49,44,34,46,40,31,92,87,79,29.81,29.64,14,4,20,0.00
2013-10-17,58,45,33,47,38,30,92,78,54,29.79,29.65,11,2,36,0.00
2013-10-18,55,44,35,42,34,28,89,70,45,29.85,29.70,16,5,20,0.00
2013-10-19,50,39,30,41,33,26,88,79,67,29.75,29.57,18,2,22,0.24
2013-10-20,52,38,27,43,33,24,89,82,69,29.74,29.50,19,5,22,0.04
2013-10-21,38,34,26,32,24,20,86,69,54,29.83,29.73,17,6,22,0.00
2013-10-22,43,32,21,34,25,18,87,78,68,29.88,29.80,10,2,14,0.00
2013-10-23,44,34,26,33,26,20,88,72,57,29.95,29.85,13,4,20,0.00
2013-10-24,44,35,29,28,25,21,77,67,52,30.16,29.94,14,4,18,0.00
2013-10-25,59,42,24,38,31,20,88,67,45,30.18,29.69,23,4,28,0.00
2013-10-26,51,43,33,37,31,26,75,63,48,29.95,29.68,16,7,23,0.00
2013-10-27,64,43,26,39,31,22,85,64,39,29.93,29.69,13,4,21,0.00
2013-10-28,51,38,33,32,28,25,82,67,47,30.25,29.93,16,7,20,0.00
2013-10-29,50,41,33,38,32,25,75,71,62,30.22,29.92,13,6,16,0.00
2013-10-30,56,49,43,52,45,37,92,86,75,29.93,29.54,14,5,36,0.00
2013-10-31,52,44,39,50,41,36,93,89,85,29.54,29.28,16,6,20,0.00
2013-11-1,50,43,37,38,36,30,89,78,60,29.71,29.29,15,6,20,0.00
2013-11-2,53,39,30,34,30,24,83,69,49,29.97,29.71,13,3,16,0.00
2013-11-3,53,42,30,36,31,24,83,65,50,30.00,29.79,30,14,38,0.00
2013-11-4,47,42,34,44,36,32,91,81,60,30.01,29.76,26,8,31,0.10
2013-11-5,44,36,26,40,33,24,93,90,84,30.09,29.77,20,6,25,0.31
2013-11-6,44,34,27,33,27,22,93,79,53,30.04,29.77,19,8,24,0.00
2013-11-7,29,28,27,25,24,23,86,85,83,30.07,30.03,5,1,25,0.00
2013-11-8,46,36,24,40,28,21,90,73,51,30.06,29.53,31,10,39,0.00
2013-11-9,46,41,32,40,33,25,85,75,60,30.06,29.54,24,10,33,0.00
2013-11-10,54,40,32,34,30,26,79,68,44,30.21,29.93,14,4,20,0.00
2013-11-11,39,25,15,31,18,9,90,72,61,30.51,29.92,18,9,22,0.00
2013-11-12,29,18,10,16,10,5,81,73,58,30.61,30.32,8,2,12,0.00
2013-11-13,47,34,18,32,23,12,76,64,44,30.32,29.80,20,6,26,0.00
2013-11-14,43,37,31,38,30,24,88,77,70,29.80,29.66,10,3,17,0.00
2013-11-15,66,42,28,45,35,25,90,75,47,29.76,29.57,17,4,20,0.00
2013-11-16,56,47,40,53,43,33,93,86,76,29.57,29.13,20,11,25,0.06
2013-11-17,46,40,33,39,34,26,89,81,75,29.69,29.20,24,8,32,0.04
2013-11-18,38,30,22,27,22,18,84,73,57,30.11,29.68,24,9,32,0.00
2013-11-19,44,34,20,30,24,16,87,70,53,30.11,29.85,27,12,36,0.00
2013-11-20,40,37,34,33,29,24,92,73,53,29.90,29.80,24,13,32,0.02
2013-11-21,38,32,24,36,29,21,92,90,84,30.29,29.89,12,2,36,0.00
2013-11-22,34,23,15,21,16,9,88,73,57,30.42,30.29,11,2,17,0.00
2013-11-23,20,11,5,10,2,-2,78,67,51,30.63,30.37,20,6,23,0.00
2013-11-24,33,16,2,14,6,-4,80,66,43,30.52,29.92,21,7,32,0.00
2013-11-25,40,32,24,30,22,14,77,68,58,29.92,29.81,15,7,23,0.00
2013-11-26,32,22,13,23,10,2,72,60,37,30.17,29.90,19,9,25,0.00
2013-11-27,41,19,8,20,8,2,79,63,39,30.20,29.92,15,5,17,0.00
2013-11-28,37,23,13,18,12,6,76,64,46,30.34,29.90,14,4,17,0.00
2013-11-29,35,23,10,22,15,4,82,70,55,30.35,30.02,20,7,30,0.00
2013-11-30,51,36,28,32,26,20,78,68,47,30.03,29.87,16,3,20,0.00
2013-12-1,54,32,23,33,24,19,85,72,45,30.03,29.79,6,2,8,0.00
2013-12-2,41,33,26,32,28,21,90,84,69,29.79,29.47,18,9,36,0.08
2013-12-3,35,34,32,33,32,30,93,92,89,29.61,29.45,100,8,100,0.12
2013-12-4,35,30,17,33,28,11,94,91,79,29.61,29.30,100,22,100,0.10
2013-12-5,19,9,3,11,3,-3,82,74,56,30.17,29.60,18,11,28,0.00
2013-12-6,16,3,-4,2,-4,-10,78,72,53,30.44,30.15,15,7,20,0.00
2013-12-7,15,2,-6,0,-6,-12,76,69,48,30.53,30.37,10,3,15,0.00
2013-12-8,16,11,5,10,5,-1,82,79,73,30.38,29.84,14,5,17,0.00
2013-12-9,12,3,-4,8,-4,-11,83,74,57,29.96,29.74,18,5,25,0.00
2013-12-10,16,10,3,10,3,-4,84,74,56,30.04,29.62,22,6,28,0.00
2013-12-11,15,0,-6,10,-8,-13,82,68,47,30.36,30.04,17,5,21,0.00
2013-12-12,28,14,2,15,7,-5,81,74,57,30.19,29.96,11,2,15,0.00
2013-12-13,24,17,14,15,11,8,84,76,67,30.05,29.91,16,8,20,0.00
2013-12-14,18,12,2,11,7,-4,83,78,73,30.05,29.88,17,7,21,0.00
2013-12-15,13,4,-1,0,-5,-7,77,69,55,29.97,29.88,12,5,17,0.00
2013-12-16,18,11,3,14,5,-6,86,76,66,29.93,29.77,14,4,16,0.00
2013-12-17,36,24,11,25,17,6,86,76,59,29.95,29.73,25,9,31,0.00
2013-12-18,38,24,9,30,18,5,87,78,57,29.94,29.53,19,5,22,0.00
2013-12-19,27,21,19,23,16,13,87,81,76,29.85,29.64,21,9,36,0.00
2013-12-20,20,19,17,15,14,13,84,81,77,29.80,29.68,18,6,36,0.00
2013-12-21,25,21,18,19,16,14,85,81,77,29.79,29.67,16,6,71,0.00
2013-12-22,23,16,1,18,11,-4,84,81,78,30.02,29.71,19,8,36,0.00
2013-12-23,5,-3,-7,-2,-9,-13,79,73,56,30.28,30.02,15,7,20,0.00
2013-12-24,14,1,-11,3,-6,-16,81,72,51,30.27,29.97,71,7,71,0.00
2013-12-25,29,16,8,24,12,3,85,81,73,29.98,29.86,16,4,71,0.00
2013-12-26,33,24,13,24,18,9,85,79,66,29.99,29.90,13,1,36,0.00
2013-12-27,48,29,15,33,23,12,88,80,56,29.99,29.77,93,8,93,0.00
2013-12-28,59,34,23,38,28,21,90,78,42,29.86,29.55,19,5,36,0.00
2013-12-29,28,4,-11,25,-3,-18,89,73,58,30.11,29.72,23,10,36,0.00
2013-12-30,5,-4,-13,-2,-10,-19,80,74,67,30.11,29.97,27,6,43,0.00
2013-12-31,3,-3,-9,-3,-8,-15,81,76,71,30.18,29.99,23,4,36,0.00
2014-1-1,3,-1,-8,-5,-8,-14,76,70,64,30.24,30.14,11,7,15,0.00
2014-1-2,16,-1,-13,0,-9,-19,76,68,46,30.28,30.16,19,5,36,0.00